[[{"header":{"parameterUnit":"m.s-1","parameterCategory":1,"la1":30.2992,"la2":30.254,"lo1":-89.0895,"lo2":-89.0443,"dy":0.0025,"dx":0.0025,"nx":19,"ny":19,"refTime":"2026-04-23T09:00:00:Z","depth":0,"parameterNumber":2,"parameterNumberName":"U-component_of_WINDS"},"data":[0,0,0,1.1503,1.1503,1.1493,1.1493,1.1493,1.1493,0,0,0,0,0,0,0,0,0,0,0,1.1515,1.1516,1.1503,1.1503,1.1493,1.1493,1.1493,1.1493,0,0,0,0,0,0,0,0,0,0,0,1.1515,1.1516,1.1516,1.1503,1.1493,1.1493,1.1493,1.1496,0,0,0,0,0,0,0,0,0,0,1.1503,1.1524,1.1516,1.1516,1.1503,1.1493,1.1493,1.1496,1.1495,1.1504,0,1.1515,0,1.1504,1.1494,1.1494,0,0,0,1.1496,1.1524,1.1513,1.1516,1.1503,1.1493,1.1495,1.1495,1.1495,1.1504,1.1514,1.1514,1.1504,1.1494,1.1494,1.1567,1.1568,0,0,1.1497,1.1519,1.1513,1.1514,1.1517,1.1496,1.1495,1.1495,1.1508,1.1514,1.1514,1.1504,1.1494,1.1494,1.1567,1.1567,0,0,0,1.1503,1.1519,1.1508,1.1514,1.1511,1.1496,1.1495,1.1508,1.1502,1.1514,1.1504,1.1494,1.1495,1.1566,1.1567,1.1621,0,0,0,1.1503,1.1523,1.1508,1.1522,1.1511,1.151,1.1508,1.1502,1.1501,1.1504,1.1494,1.1495,1.1565,1.1566,1.1618,1.1643,0,0,0,1.1513,1.1524,1.1526,1.1523,1.1519,1.1509,1.1503,1.1502,1.1496,1.1494,1.1495,1.1564,1.1566,1.1615,1.1638,1.1668,0,0,0,1.153,1.1575,1.1527,1.1573,1.152,1.1543,1.1503,1.1519,1.1524,1.1494,1.1565,1.1567,1.1614,1.1636,1.1665,1.1696,1.1711,0,0,1.1599,1.1584,1.1609,1.1566,1.1604,1.1543,1.1588,1.1572,1.1551,1.1563,1.1564,1.1619,1.1638,1.1667,1.1791,1.1803,0,0,0,1.1639,1.1657,1.1662,1.1668,1.1657,1.1648,1.1623,1.1616,1.1625,1.1562,1.1637,1.1648,1.1664,1.1678,1.1688,1.17,1.1574,1.1574,1.1574,1.1768,1.1739,1.1778,1.1748,1.1754,1.1727,1.1728,1.1715,1.1684,1.1703,1.1706,1.1784,1.1801,1.1809,1.1822,1.172,1.1721,1.1721,1.1721,1.1865,1.1886,1.1844,1.1867,1.1836,1.1855,1.1829,1.1807,1.1819,1.178,1.1793,1.1752,1.1823,1.1833,1.1725,1.1724,1.1724,1.1723,1.1723,1.1946,1.1951,1.1943,1.1947,1.1953,1.1921,1.1934,1.1905,1.1878,1.1891,1.189,1.1889,1.1883,1.1892,1.1893,1.1893,1.1893,1.1893,1.1894,1.2033,1.2022,1.2037,1.2028,1.2027,1.2022,1.1994,1.1992,1.1982,1.1959,1.1959,1.1926,1.1836,1.1814,1.1898,1.1897,1.1896,1.1896,1.1896,1.2141,1.2112,1.2136,1.2135,1.212,1.2128,1.2091,1.2089,1.2083,1.209,1.2054,1.1992,1.1975,1.1966,1.1947,1.2061,1.2061,1.2061,1.2061,1.2209,1.2197,1.2214,1.2214,1.2211,1.2179,1.2205,1.2183,1.2155,1.2149,1.2129,1.2101,1.2094,1.2081,1.207,1.2051,1.2189,1.2189,1.2189,1.2273,1.226,1.2288,1.2261,1.2247,1.2236,1.2259,1.2259,1.2222,1.2194,1.2144,1.2138,1.2094,1.2081,1.2052,1.2035,1.2001,0,0]},{"header":{"parameterUnit":"m.s-1","parameterCategory":1,"la1":30.2992,"la2":30.254,"lo1":-89.0895,"lo2":-89.0443,"dy":0.0025,"dx":0.0025,"nx":19,"ny":19,"refTime":"2026-04-23T09:00:00:Z","depth":0,"parameterNumber":3,"parameterNumberName":"V-component_of_WINDS"},"data":[0,0,0,3.9723,3.9727,3.9918,3.9919,4.0155,4.0157,0,0,0,0,0,0,0,0,0,0,0,3.9664,3.9665,3.9722,3.9727,3.9918,3.9919,4.0154,4.0157,0,0,0,0,0,0,0,0,0,0,0,3.9663,3.9665,3.9667,3.9728,3.9918,3.9919,4.0154,4.0012,0,0,0,0,0,0,0,0,0,0,3.9828,3.9772,3.9664,3.9667,3.9729,3.9918,3.9919,4.0005,4.0021,4.0066,0,4.0107,0,4.0136,4.0172,4.0173,0,0,0,3.9728,3.9759,3.9813,3.9667,3.9731,3.9917,3.9832,4.0014,4.0032,4.0086,4.011,4.0119,4.014,4.0174,4.0175,4.0435,4.0436,0,0,3.9717,3.9696,3.98,3.9824,3.9797,3.9826,3.9838,4.0025,4.0049,4.0111,4.0125,4.0144,4.0175,4.0177,4.0434,4.0436,0,0,0,3.9687,3.9689,3.9738,3.9814,3.9849,3.9831,3.9845,4.0041,4.0059,4.0128,4.0146,4.0177,4.018,4.0433,4.0435,4.0474,0,0,0,3.968,3.9671,3.9734,3.9722,3.9846,3.9948,3.9857,4.0046,4.0067,4.0145,4.0177,4.0182,4.0432,4.0434,4.047,4.0495,0,0,0,3.9652,3.9667,3.9695,3.9721,3.9803,3.9945,3.9974,4.0051,4.0079,4.0173,4.0182,4.0431,4.0434,4.0466,4.049,4.0558,0,0,0,3.9615,3.9725,3.9695,3.9824,3.9801,3.9968,3.9973,4.0099,4.0184,4.0178,4.0432,4.0435,4.0465,4.0486,4.0555,4.0613,4.0635,0,0,3.9742,3.9739,3.9817,3.9796,3.9964,3.9941,4.0114,4.0211,4.0237,4.0367,4.0374,4.0471,4.0489,4.0558,4.0766,4.0783,0,0,0,3.985,3.9906,3.9955,4.0037,4.0115,4.0184,4.0257,4.0293,4.0405,4.0301,4.0515,4.0526,4.0567,4.0596,4.0611,4.0647,4.0447,4.0447,4.0446,3.9999,4.0029,4.016,4.0214,4.0293,4.0368,4.0434,4.0494,4.05,4.055,4.0589,4.0712,4.0745,4.0756,4.0794,4.0621,4.0622,4.0622,4.0622,4.0187,4.0272,4.0278,4.0408,4.0439,4.0547,4.0622,4.0623,4.0727,4.0685,4.0722,4.0675,4.0775,4.0809,4.0625,4.0625,4.0624,4.0624,4.0624,4.0289,4.0335,4.0378,4.05,4.0589,4.0638,4.0738,4.0762,4.0784,4.0821,4.0865,4.0864,4.0867,4.084,4.084,4.0841,4.0841,4.0842,4.0842,4.0378,4.0425,4.0508,4.0601,4.0657,4.0732,4.0808,4.0863,4.0929,4.0937,4.0938,4.0939,4.0779,4.0739,4.0849,4.0847,4.0847,4.0846,4.0846,4.0559,4.0522,4.0651,4.0707,4.0817,4.0904,4.0933,4.1042,4.109,4.1138,4.1131,4.1009,4.1008,4.0996,4.0963,4.1124,4.1124,4.1124,4.1124,4.0646,4.0647,4.0785,4.0872,4.0961,4.1,4.1142,4.1201,4.1255,4.1287,4.1266,4.1224,4.1211,4.1218,4.1201,4.1171,4.1381,4.1381,4.1382,4.0759,4.0771,4.0889,4.0945,4.1032,4.1106,4.1241,4.1339,4.1393,4.1393,4.1312,4.1301,4.1233,4.1209,4.1208,4.1182,4.1126,0,0]}]]